Theta_e
347 345 343 344 343 343 344 343 346 349 351 351 352 353 353 354 349 347 348 348 346 345 344 341 341 341 337 340 335 335 332 333 332 330 335 336 340 340 341 340 335 333 331
348 347 347 347 346 343 342 341 341 341 345 349 352 351 352 354 353 352 350 348 349 350 346 346 345 339 343 342 339 337 334 334 334 331 327 336 340 341 341 335 331 330 328
347 347 348 348 346 341 339 339 339 338 339 341 348 350 351 352 352 352 353 351 349 348 346 345 344 339 339 343 341 341 338 335 322 319 325 333 339 341 340 337 331 329 327
347 347 348 349 348 343 341 341 341 341 339 338 343 349 351 352 352 352 354 355 354 349 348 345 344 343 345 342 344 341 340 336 319 318 330 338 341 340 338 333 329 327 321
350 350 348 348 349 348 345 343 345 346 343 342 341 340 341 340 341 343 347 349 353 350 348 349 349 342 336 344 345 343 340 337 319 317 335 340 340 339 333 329 324 323 321
353 353 352 350 348 350 351 351 352 353 353 352 350 348 347 346 345 348 351 352 351 349 346 346 347 346 340 344 345 344 340 330 321 323 325 335 336 330 330 327 324 321 320
344 350 349 351 345 340 346 352 354 353 355 357 356 356 355 355 354 355 356 356 354 352 350 348 345 340 338 338 346 344 341 330 328 324 319 322 329 331 332 329 326 324 322
340 343 338 339 345 340 337 336 352 352 350 352 353 355 354 352 352 353 352 353 353 352 351 342 339 337 341 344 344 342 342 334 328 324 326 325 327 328 330 332 329 326 322
342 345 337 345 345 340 345 347 349 349 349 346 350 352 352 353 351 349 351 351 349 349 350 345 337 337 342 343 340 341 341 337 330 326 320 319 319 324 328 331 326 324 322
336 336 341 343 340 340 337 336 338 342 343 339 338 344 342 342 345 351 353 351 348 350 345 340 338 340 345 347 344 340 340 338 330 325 318 318 317 317 320 319 315 315 321
339 339 339 340 341 339 338 337 336 336 338 337 336 336 337 337 339 345 349 348 344 340 340 338 342 345 346 343 341 339 338 337 328 321 318 318 317 312 312 312 315 319 318
336 337 333 334 336 335 335 334 334 338 339 339 343 344 340 337 334 337 338 343 343 338 341 343 342 340 338 340 340 337 337 333 324 318 320 318 315 321 322 322 322 322 322
340 337 335 336 335 336 337 337 336 335 336 337 338 343 345 341 338 339 339 339 339 343 345 340 338 338 336 336 337 336 333 326 320 324 320 319 318 322 323 323 323 323 323
340 338 336 336 335 334 338 338 337 336 339 338 341 344 345 346 347 345 345 344 342 342 340 339 339 341 339 337 337 335 333 323 324 327 323 321 321 323 324 325 325 325 324
334 334 334 334 336 337 338 339 339 339 336 335 339 344 347 347 346 346 345 344 341 340 340 340 340 340 341 338 337 337 332 327 328 329 325 323 324 324 324 323 323 323 324
331 333 333 333 335 336 337 335 337 335 336 331 335 335 332 338 344 345 342 342 341 341 341 341 341 341 340 341 340 339 336 332 329 330 325 324 322 325 324 323 324 325 323
332 334 333 330 334 337 333 335 335 338 338 336 334 338 335 333 333 334 339 342 341 341 339 340 339 341 343 341 340 339 338 334 329 330 327 323 322 323 322 323 323 322 321
337 335 330 329 331 336 334 335 335 333 333 337 335 337 335 334 334 332 332 338 338 338 337 336 337 337 339 339 339 338 337 333 330 330 329 322 322 322 323 323 322 321 319
336 338 336 336 330 332 335 336 333 333 334 334 335 334 335 337 337 336 335 334 334 337 337 338 336 337 339 339 338 337 336 334 332 328 328 324 322 322 322 323 321 321 319
340 340 339 339 338 336 334 337 337 334 330 331 331 330 334 337 338 338 335 334 333 334 333 335 335 336 336 337 337 336 334 332 328 325 323 319 322 322 323 322 321 320 318
339 339 340 340 339 338 338 336 336 337 330 332 333 333 336 337 337 338 335 333 332 332 335 336 336 335 336 336 334 333 331 326 326 324 321 323 322 323 323 320 319 318 316
341 340 339 339 338 337 336 336 334 338 335 332 333 332 337 337 336 334 335 335 333 332 334 335 334 336 335 336 335 333 328 326 326 326 323 323 321 322 321 318 318 317 316
338 335 338 338 335 334 329 327 332 333 335 335 331 335 338 338 336 335 335 337 335 332 333 334 334 333 334 333 332 330 329 328 327 325 323 323 322 320 319 317 316 316 315
333 338 338 333 333 333 333 333 334 336 337 338 336 337 338 338 337 337 335 336 336 333 333 331 332 334 334 331 331 329 325 324 324 324 321 320 318 319 317 316 315 315 314
334 339 340 335 333 336 336 337 337 337 338 337 337 338 337 337 337 337 335 333 334 333 333 332 333 332 332 330 328 324 322 322 321 321 320 319 318 319 317 315 315 314 314
334 335 336 336 336 338 336 332 337 336 336 336 336 337 338 336 337 336 335 334 332 332 333 331 331 332 329 327 323 321 321 321 322 321 319 319 319 317 316 315 314 313 309
Wind_Speed
28 28 28 25 24 24 25 24 23 22 20 19 17 14 14 12 12 12 11 11 11 11 10 8 9 13 18 19 16 14 14 15 15 16 18 17 16 13 13 9 10 7 8
30 31 28 27 25 25 26 26 25 25 24 24 22 20 18 16 13 15 15 15 15 13 12 12 9 21 24 20 19 17 14 15 14 16 17 18 16 13 9 9 8 8 8
35 32 29 27 27 26 23 22 22 25 25 27 28 27 23 21 19 19 18 17 17 16 15 16 15 22 29 19 18 15 14 13 12 13 14 16 16 14 12 10 10 9 8
40 37 34 32 28 29 28 27 26 24 25 26 30 31 28 26 26 23 21 22 19 19 19 20 19 18 14 16 19 13 13 13 10 9 10 11 13 13 11 10 9 9 8
34 36 37 35 34 31 29 29 27 27 29 29 29 30 30 28 26 27 27 27 23 20 19 20 17 12 16 16 14 13 12 12 10 9 11 12 14 14 11 9 9 10 9
25 26 33 36 35 30 29 29 28 28 27 29 29 29 32 33 29 24 24 22 22 25 25 22 22 14 10 18 13 14 13 12 11 11 14 15 14 14 13 12 10 11 12
19 17 19 24 27 35 30 30 29 30 28 27 29 27 29 29 29 27 27 27 27 28 26 22 24 24 23 22 20 16 16 15 12 11 13 14 13 13 16 15 14 13 12
23 22 30 30 48 33 26 33 25 25 27 28 32 29 28 31 31 30 30 31 33 35 30 21 17 16 16 21 25 20 20 17 14 13 13 12 12 13 15 16 15 14 12
23 23 28 39 38 27 15 15 20 22 21 24 29 28 29 28 31 32 32 33 35 39 36 28 21 23 19 12 25 22 22 20 17 15 13 12 10 9 9 13 14 15 11
13 17 22 25 23 15 15 17 16 17 16 16 20 19 18 17 19 23 25 26 22 20 17 24 25 22 16 21 23 23 23 21 18 16 13 11 9 9 11 12 11 9 10
5 7 8 13 17 18 13 12 11 10 11 13 15 19 21 23 23 26 28 26 24 23 25 26 15 10 15 19 20 21 21 18 17 15 13 13 11 8 8 7 8 8 6
5 4 4 5 7 11 13 14 14 14 14 14 17 17 14 18 18 24 31 31 25 17 17 14 12 10 13 18 18 18 18 17 17 16 16 15 12 12 10 10 9 8 7
8 8 6 5 8 11 13 14 14 12 14 16 18 16 14 13 8 6 10 16 20 18 13 13 13 11 9 13 17 19 18 19 19 18 16 14 15 13 12 11 13 14 14
6 5 5 6 10 12 10 12 12 14 14 17 13 10 8 7 9 11 8 10 12 17 20 21 17 10 7 11 18 20 19 19 19 18 15 15 19 17 14 13 15 16 16
4 3 4 6 9 8 7 9 11 8 9 10 9 5 5 4 2 3 2 3 9 15 20 19 15 7 8 14 19 22 23 22 23 19 16 18 16 15 14 15 16 13 11
2 3 5 9 6 6 8 11 4 2 4 6 8 8 5 5 5 3 4 4 7 13 16 17 14 11 11 15 21 24 25 25 24 23 18 15 8 9 12 14 16 13 10
3 4 7 9 3 7 10 4 6 4 2 5 4 5 5 4 5 3 4 5 7 12 17 15 14 13 14 14 17 24 24 26 24 22 19 14 13 8 12 13 10 8 7
3 1 7 3 8 9 6 1 4 8 8 6 8 5 2 3 5 5 4 4 7 11 12 10 11 11 12 13 13 16 20 22 24 21 22 21 16 12 12 7 7 8 7
6 6 8 8 9 10 9 7 8 9 9 8 10 3 4 3 4 6 7 5 5 7 10 9 9 9 9 10 11 13 13 17 21 24 19 14 13 16 11 8 10 8 9
5 6 6 9 11 6 7 10 11 11 6 3 5 7 8 7 5 4 9 8 7 6 5 9 9 9 10 10 12 12 13 17 18 18 18 15 16 14 12 7 10 10 7
3 6 7 7 7 8 10 9 11 9 5 5 5 3 5 5 5 1 8 8 7 5 2 6 7 9 9 9 9 11 13 14 14 15 18 21 17 12 8 5 6 6 7
4 5 7 7 9 10 7 9 9 8 10 9 6 4 3 4 2 4 5 6 8 4 4 7 9 9 9 10 10 14 16 15 17 15 24 22 15 10 9 10 7 6 7
5 5 6 9 8 9 11 6 6 6 7 7 6 5 3 2 2 3 5 6 6 6 4 7 9 9 6 7 9 11 13 14 13 16 19 10 13 10 6 8 7 7 5
7 4 6 9 2 3 5 5 4 5 3 2 4 4 5 4 5 3 4 6 7 6 5 5 5 4 5 8 8 12 13 13 12 12 15 10 11 8 8 6 7 5 5
4 1 4 5 4 6 6 5 5 4 5 7 7 8 7 6 5 5 5 6 7 6 4 4 8 8 7 5 9 16 11 11 18 18 15 14 10 10 10 6 6 4 5
3 1 2 3 3 4 6 5 4 6 5 5 6 9 9 9 7 6 6 6 7 6 4 3 6 6 7 8 15 13 18 18 14 13 13 12 11 12 10 8 5 2 3
Wind_Direction
231 233 233 232 231 234 235 237 238 238 239 239 246 252 242 251 254 257 261 259 257 261 271 275 290 298 290 295 293 282 269 276 280 281 264 257 252 249 237 224 239 247 243
236 238 238 240 237 236 239 241 239 242 242 243 243 243 243 246 255 264 270 271 275 282 281 295 292 310 286 290 297 295 279 275 275 275 271 257 244 241 219 232 258 256 259
233 239 240 241 242 238 237 239 240 241 243 242 246 248 250 254 258 260 268 270 274 278 270 268 285 312 281 268 282 289 289 288 283 271 259 259 238 222 221 244 264 254 270
235 239 242 245 248 250 246 247 246 245 244 243 244 249 255 261 263 264 266 269 269 265 264 269 265 309 313 259 266 287 285 282 277 258 239 247 223 213 228 251 260 261 235
244 246 244 246 249 254 253 256 261 257 252 249 248 251 253 254 259 263 265 268 269 269 268 266 259 309 308 280 251 282 281 270 261 248 228 222 216 225 243 254 253 242 245
249 262 261 249 247 260 268 260 261 266 264 262 257 256 258 259 259 258 259 257 254 251 252 251 254 261 325 303 249 268 270 249 245 246 231 227 230 234 225 233 238 241 247
271 251 258 268 271 267 263 268 267 265 267 264 265 260 259 257 257 256 255 253 249 250 251 254 262 269 311 293 284 263 258 244 240 237 240 243 243 246 239 240 241 244 254
239 258 256 242 261 280 278 278 281 276 264 272 273 269 270 270 269 266 266 260 256 258 254 234 277 263 268 275 272 260 253 245 239 237 236 246 251 260 246 242 252 253 253
250 251 219 241 266 272 295 286 273 271 266 263 274 273 274 272 273 274 274 270 261 261 257 241 267 258 244 236 246 240 241 236 232 232 235 241 247 244 236 236 235 240 247
246 251 258 257 254 257 272 279 279 279 276 271 280 277 277 277 275 279 276 269 263 250 245 261 273 267 247 224 217 228 232 230 228 231 233 231 222 215 220 230 231 216 192
225 233 255 252 255 272 288 297 299 301 304 301 293 289 283 279 274 268 263 248 253 270 272 263 242 248 225 220 227 225 226 230 225 223 220 213 208 204 188 173 168 191 210
58 335 304 308 292 293 293 293 291 288 294 303 304 290 289 301 286 266 266 266 272 268 258 238 212 209 231 213 213 208 209 213 218 216 214 204 199 181 173 176 185 197 219
338 324 300 302 307 310 311 301 287 290 302 303 302 299 283 282 311 285 259 239 238 234 212 180 165 169 191 200 199 196 204 205 207 209 207 206 191 187 198 211 222 231 236
347 352 351 342 334 312 316 312 300 300 312 320 303 293 283 280 287 262 243 216 191 189 179 174 172 165 174 175 187 198 210 210 213 210 203 197 194 208 220 235 236 246 249
59 27 360 338 344 359 325 327 327 316 323 345 353 21 23 38 24 108 144 194 181 183 185 184 176 178 199 196 196 207 212 210 213 206 205 205 210 227 233 224 228 239 239
176 348 358 359 353 348 313 325 28 27 16 24 22 26 37 80 107 110 129 148 204 203 203 203 215 252 244 237 229 219 218 221 216 207 204 205 214 208 208 231 237 226 247
262 353 9 337 27 352 354 109 143 120 9 344 345 5 336 18 45 81 173 198 215 230 235 242 255 258 251 247 246 217 223 221 214 205 200 208 216 228 218 225 225 239 234
255 318 11 333 335 353 7 229 251 248 229 213 226 293 312 0 14 24 19 213 236 236 238 240 249 248 238 230 220 225 231 222 215 212 206 211 218 212 210 208 232 231 223
257 271 299 329 317 309 309 302 268 272 275 286 229 270 291 274 345 355 357 344 308 264 247 238 241 242 232 233 232 235 239 219 212 216 222 217 193 197 235 246 211 237 222
236 262 300 305 319 324 322 301 286 288 285 6 218 278 309 308 287 348 352 349 337 317 239 225 241 244 246 242 228 227 203 201 211 211 194 198 189 187 206 204 245 243 218
287 297 309 310 309 294 293 290 296 276 261 313 316 272 321 272 219 17 1 4 354 334 266 211 229 245 240 220 205 211 203 185 168 181 181 181 199 215 210 174 207 204 219
302 321 324 314 306 302 303 285 282 271 261 274 298 256 288 332 94 41 360 349 358 340 238 227 234 240 244 248 224 198 187 194 200 198 186 199 220 204 182 195 232 245 235
312 317 326 332 325 326 332 307 227 266 297 279 228 226 226 210 76 15 351 319 327 333 286 239 232 250 233 189 184 197 205 212 208 198 200 217 174 165 196 203 213 208 250
314 315 339 334 326 352 3 356 327 314 291 265 241 237 239 248 237 289 330 304 302 319 312 265 222 208 214 203 215 183 168 172 205 220 163 156 170 184 190 218 200 224 273
319 10 2 36 14 340 331 312 316 316 273 272 270 272 266 271 288 289 300 296 284 286 279 232 176 172 181 182 186 163 190 188 159 161 163 174 187 199 197 216 215 252 280
261 264 13 36 9 321 330 312 302 301 304 322 304 279 263 261 267 277 272 295 273 262 253 203 204 182 176 180 173 172 163 166 174 169 175 191 197 187 198 208 205 223 163